Regional Weather Roundup
Issued by NWS Northern Indiana

Home | Current Version | Previous Version | Text Only | Print | Product List | Glossary On
Versions: 1 2 3 4 5 6 7 8 9 10 11 12 13 14 15 16 17 18 19 20 21 22 23 24 25 26 27 28 29 30 31 32 33 34 35 36 37 38 39 40 41 42 43 44 45 46 47 48 49 50
000
ASUS43 KIWX 260510
RWRIWX

KIWX WEATHER ROUNDUP
NATIONAL WEATHER SERVICE NORTHERN INDIANA
100 AM EDT SUN APR 26 2015

NOTE: "FAIR" INDICATES FEW OR NO CLOUDS BELOW 12,000 FEET WITH NO
SIGNIFICANT WEATHER AND/OR OBSTRUCTIONS TO VISIBILITY.

* THESE STATIONS ARE NOT UNDER NWS QUALITY CONTROL. THEY ALSO MAY NOT
  REPORT WEATHER SUCH AS PRECIPITATION OR FOG.

INZ001>027-260600-
NORTHERN INDIANA

CITY           SKY/WX    TMP DP  RH WIND       PRES   REMARKS
GARY*          CLOUDY    41  33  73 N5        29.85S
VALPARAISO     PTCLDY    40  36  86 CALM      29.83S
MICHIGAN CITY* PTCLDY    36  34  93 CALM      29.84S
LAPORTE*       PTCLDY    39  37  94 CALM      29.83S
KNOX*          PTCLDY    39  27  60 NE5       29.82S
SOUTH BEND     PTCLDY    38  35  89 N5        29.84R
GOSHEN         PTCLDY    38  32  79 CALM      29.82R
MONTICELLO*    CLOUDY    42  36  79 NE8       29.80R
LOGANSPORT*    CLOUDY    43  32  65 NE6       29.80R
ROCHESTER*     MOCLDY    43  36  75 NE6       29.82S
WARSAW*        MOCLDY    39  34  81 N3        29.82R
ANGOLA*        CLEAR     37  34  87 CALM      29.81S
FORT WAYNE     CLOUDY    41  34  76 N8        29.81R
HUNTINGTON*    CLOUDY    40  34  77 NE6       29.80R
PERU/GRISSOM   CLOUDY    42  33  70 NE12      29.79R
MARION*        CLOUDY    41  30  65 NE14      29.79R

$$
INZ028>050-260600-
CENTRAL INDIANA

CITY           SKY/WX    TMP DP  RH WIND       PRES   REMARKS
LAFAYETTE      CLOUDY    43  35  73 E10       29.78R
KOKOMO*        CLOUDY    43  30  61 E12       29.79R
MUNCIE*        CLOUDY    42  31  64 NE12      29.77R
INDIANAPOLIS   CLOUDY    44  37  76 NE13      29.73R

$$
MIZ043>046-050>051-056>058-064>065-071>073-077>080-260600-
SOUTHWEST LOWER MICHIGAN

CITY           SKY/WX    TMP DP  RH WIND       PRES   REMARKS
BATTLE CREEK   PTCLDY    41  27  57 NE8       29.85R
BENTON HARBOR  CLEAR     42  28  57 NE6       29.84R
COLDWATER*     CLEAR     40  26  57 NE7       29.82R
HILLSDALE*     PTCLDY    42  26  52 NE5       29.81R
HOLLAND        PTCLDY    44  25  47 NE7       29.87R
GRAND RAPIDS   PTCLDY    39  24  55 NE9       29.87R
KALAMAZOO      PTCLDY    42  27  55 NE6       29.85R
STURGIS*       CLEAR     41  27  56 CALM      29.82R
THREE RIVERS*  FAIR      40  30  67 N3        29.84R

$$
OHZ001>008-015>018-024>025-260600-
NORTHWEST OHIO

CITY           SKY/WX    TMP DP  RH WIND       PRES   REMARKS
WAUSEON*       CLOUDY    41  32  70 NE7       29.81S
DEFIANCE       MOCLDY    42  31  64 NE7       29.82R
FINDLAY        CLOUDY    42  31  64 NE13      29.78R
TOLEDO EXPRESS MOCLDY    43  27  53 NE10      29.80R
TOLEDO METCALF MOCLDY    44  29  55 NE9       29.81S
LIMA           CLOUDY    39  30  70 NE12      29.77S

$$
AND FOR LAKE MICHIGAN COASTAL AND OPEN LAKE BUOY OBSERVATIONS

STATION/POSITION TEMP    WIND        PRES    VSBY  WAVE
                 AIR SEA DIR/SP/G                  HT/PER
                 (F)     (DEG/KT/KT) (MB)    (MI)  (FT/S)
CALUMET HARBOR    40     340/  9/ 13   N/A
MICHIGAN CITY     40      30/  4/  5   N/A
BURNS HARBOR      41      30/  9/ 10 1010.8S
SAINT JOSEPH      44      40/  1/  4 1010.8S
MICHIGAN CITY     39 45   60/  6/  8   N/A           2/ 3

$$
&&


USA.gov is the U.S. government's official web portal to all federal, state and local government web resources and services.